Regional Weather Roundup
Issued by NWS

Home | Current Version | Previous Version | Text Only | Print | Product List | Glossary On
Versions: 1 2 3 4 5 6 7 8 9 10 11 12 13 14 15 16 17 18 19 20 21 22 23 24 25 26 27 28 29 30 31 32 33 34 35 36 37 38 39 40 41 42 43 44 45 46 47 48 49 50
064
ASUS45 KBOU 250007
RWRCO

WEATHER ROUNDUP FOR COLORADO
NATIONAL WEATHER SERVICE DENVER/BOULDER CO
600 PM MDT FRI MAR 24 2017

NOTE: "FAIR" INDICATES FEW OR NO CLOUDS BELOW 12000 FEET WITH NO
SIGNIFICANT WEATHER AND/OR OBSTRUCTIONS TO VISIBILITY.

COZ001>005-013-030-031-250100-
...NORTHWEST COLORADO...

CITY           SKY/WX    TMP DP  RH WIND       PRES   REMARKS
CRAIG          FAIR      55  20  25 VRB6      30.11F
HAYDEN         FAIR      54  19  26 W7        30.13S
MEEKER         FAIR      56  22  26 SW7       30.12F
MOUNT WERNER   NOT AVBL
STEAMBOAT SPGS FAIR      49  22  34 SW3       30.13F
WALDEN         NOT AVBL
$$

COZ006>008-011-250100-
...WEST CENTRAL VALLEYS...

CITY           SKY/WX    TMP DP  RH WIND       PRES   REMARKS
GRAND JUNCTION FAIR      62  28  27 W9        30.09F
MONTROSE       FAIR      56  25  30 W5        30.13F
EAGLE          MOSUNNY   54  23  30 W7        30.13F
RIFLE          FAIR      59  25  27 SW7       30.10F
DELTA          FAIR      63  26  24 SW13G22   30.10S
NUCLA          FAIR      59  27  29 SW6       30.16S
$$

COZ017>023-064>068-250100-
...SOUTHWEST COLORADO...

CITY           SKY/WX    TMP DP  RH WIND       PRES   REMARKS
DURANGO        FAIR      59  24  26 W17G25    30.05R
CORTEZ         FAIR      60  25  26 N10G21    30.12S
PAGOSA SPRINGS FAIR      54  33  43 E6        30.12R
TELLURIDE      FAIR      41  24  49 W6        30.24R
WOLF CREEK PAS FAIR      32  14  47 W7        30.31R WCI  26
$$

COZ009-010-012-014-032>034-037-058>063-250100-
...CENTRAL COLORADO...

CITY           SKY/WX    TMP DP  RH WIND       PRES   REMARKS
ASPEN          FAIR      48  24  39 N3        30.15R
BUENA VISTA    FAIR      51  13  21 NW18G24   30.11S
COPPER MTN     FAIR      32  19  59 MISG      30.25S
BERTHOUD PASS  PTSUNNY   19   9  63 NW21      30.25R WCI   3
COTTONWOOD PAS FAIR      46  14  27 CALM      30.19R
GUNNISON       FAIR      49  22  34 W8        30.16R
KREMMLING      FAIR      54  21  28 CALM      30.15S
LEADVILLE      PTSUNNY   38  18  44 VRB6      30.19R
MONARCH PASS   CLOUDY    32  21  64 W22G28    30.34R WCI  19
SALIDA         FAIR      52  24  33 SE15G22   30.19R
SUNLIGHT       FAIR      32  25  74 SW6       30.29S WCI  26
WILKERSON PASS CLOUDY    27  23  86 NE12G20   30.24S WCI  16
$$

COZ069>075-250100-
...SAN LUIS VALLEY/SANGRE DE CRISTO MOUNTAINS...

CITY           SKY/WX    TMP DP  RH WIND       PRES   REMARKS
ALAMOSA        FAIR      46  30  53 SE13      30.11R
LA VETA PASS   NOT AVBL
SAGUACHE       FAIR      52  23  32 N15       30.12R
$$

COZ035-036-038>040-250100-
...NORTHERN COLORADO FRONT RANGE...

CITY           SKY/WX    TMP DP  RH WIND       PRES   REMARKS
DENVER INTL AP FAIR      49  30  48 NE10      30.12S
DMNS CITY PARK   N/A     50  28  41 E5G13     30.13S
AURORA         PTSUNNY   48  33  56 E9        30.14S
FRONT RANGE AP PTSUNNY   50  36  57 NE9G20    30.14R
ERIE MUNI ARPT PTSUNNY   53  29  39 SE8       30.13R
BOULDER MUN AP CLOUDY    54  25  32 E6        30.12R
CENTENNIAL     PTSUNNY   46  32  58 E5        30.14S
BROOMFIELD     PTSUNNY   50  28  43 E7        30.14S
FORT COLLINS   FAIR      57  23  26 E13       30.10S
LONGMONT       CLOUDY    58  25  27 E7        30.13S
$$

COZ041-046-047-076>085-087-088-250100-
...PIKES PEAK/PALMER DIVIDE AND SOUTHERN FOOTHILLS...

CITY           SKY/WX    TMP DP  RH WIND       PRES   REMARKS
COLO. SPRINGS  FAIR      43  30  60 N16       30.17R
A. F. ACADEMY  PTSUNNY   40  33  74 N8        30.16R
SCHRIEVER AFB  FAIR      42  32  67 N15G23    30.16S
ELLICOTT       NOT AVBL
FALCON         FAIR      41  31  68 N10G16    30.17S
FORT CARSON    NOT AVBL
LIMON          FAIR      43  35  73 N12       30.12S
MONUMENT HILL  FAIR      36  32  87 NW5       30.18R
TRINIDAD       CLOUDY    43  35  73 NW12      30.16
$$

COZ042>045-048>051-090-091-250100-
...NORTHEAST COLORADO...

CITY           SKY/WX    TMP DP  RH WIND       PRES   REMARKS
GREELEY ARPT   FAIR      56  23  27 NE12      30.11S
AKRON          CLOUDY    47  34  60 E9        30.12R
BURLINGTON     MIX PCPN  36  35  96 N23G32    30.07R
WRAY           NOT AVBL
STERLING       FAIR      54  32  43 NE12      30.09S
HOLYOKE        FAIR      52  39  62 NE10      30.11S
FORT MORGAN    FAIR      54  25  32 NE13      30.12S
$$

COZ086-089-092>099-250100-
...SOUTHEAST COLORADO...

CITY           SKY/WX    TMP DP  RH WIND       PRES   REMARKS
PUEBLO         FAIR      51  34  52 NE25G32   30.11F
LA JUNTA       CLOUDY    45  37  73 N21       30.13R
LAMAR          PTSUNNY   44  34  67 N25G38    30.05R
SPRINGFIELD      N/A     40  34  79 N32G43    30.03R
$$




USA.gov is the U.S. government's official web portal to all federal, state and local government web resources and services.